• In Belarus
  • List of Countries
  • For 7 days
  • Water Temperature
  • Satellite Maps
  • Weather Map
  • Weather Widgets
  • user-avatar
    Login

    Hourly Weather Ondjiwa

    Today, 18 October, Thursday

    Time Temperature Precipitation Wind Pressure Humidity
    00:00 +23°C° 0 mm 4 mps 665 mmHg 10%
    01:00 +22°C° 0 mm 4 mps 665 mmHg 13%
    02:00 +21°C° 0 mm 4 mps 665 mmHg 15%
    03:00 +20°C° 0 mm 3 mps 664 mmHg 17%
    04:00 +18°C° 0 mm 3 mps 664 mmHg 19%
    05:00 +19°C° 0 mm 2 mps 665 mmHg 19%
    06:00 +20°C° 0 mm 2 mps 666 mmHg 19%
    07:00 +23°C° 0 mm 1 mps 667 mmHg 18%
    08:00 +26°C° 0 mm 2 mps 667 mmHg 14%
    09:00 +30°C° 0 mm 3 mps 667 mmHg 11%
    10:00 +34°C° 0 mm 3 mps 668 mmHg 7%
    11:00 +36°C° 0 mm 3 mps 667 mmHg 6%
    12:00 +38°C° 0 mm 4 mps 667 mmHg 5%
    13:00 +41°C° 0 mm 4 mps 666 mmHg 3%
    14:00 +40°C° 0 mm 3 mps 666 mmHg 3%
    15:00 +40°C° 0 mm 3 mps 665 mmHg 3%
    16:00 +40°C° 0 mm 3 mps 665 mmHg 3%
    17:00 +37°C° 0 mm 3 mps 664 mmHg 4%
    18:00 +34°C° 0 mm 3 mps 664 mmHg 5%
    19:00 +30°C° 0 mm 3 mps 663 mmHg 6%
    20:00 +29°C° 0 mm 3 mps 664 mmHg 6%
    21:00 +28°C° 0 mm 3 mps 664 mmHg 7%
    22:00 +27°C° 0 mm 3 mps 664 mmHg 7%
    23:00 +26°C° 0 mm 3 mps 664 mmHg 10%

    Tomorrow, 19 October, Friday

    Time Temperature Precipitation Wind Pressure Humidity
    00:00 +25°C° 0 mm 3 mps 664 mmHg 13%
    01:00 +22°C° 0 mm 3 mps 664 mmHg 16%
    02:00 +21°C° 0 mm 3 mps 664 mmHg 20%
    03:00 +20°C° 0 mm 2 mps 663 mmHg 23%
    04:00 +20°C° 0 mm 1 mps 663 mmHg 26%
    05:00 +21°C° 0 mm 2 mps 664 mmHg 25%
    06:00 +23°C° 0 mm 2 mps 665 mmHg 23%
    07:00 +25°C° 0 mm 2 mps 666 mmHg 22%
    08:00 +28°C° 0 mm 3 mps 667 mmHg 17%
    09:00 +33°C° 0 mm 3 mps 667 mmHg 12%
    10:00 +36°C° 0 mm 4 mps 668 mmHg 7%
    11:00 +38°C° 0 mm 4 mps 667 mmHg 6%
    12:00 +40°C° 0 mm 4 mps 667 mmHg 6%
    13:00 +42°C° 0 mm 4 mps 666 mmHg 5%
    14:00 +42°C° 0 mm 3 mps 666 mmHg 5%
    15:00 +42°C° 0 mm 3 mps 665 mmHg 5%
    16:00 +41°C° 0 mm 2 mps 664 mmHg 6%
    17:00 +38°C° 0 mm 2 mps 664 mmHg 7%
    18:00 +36°C° 0 mm 2 mps 664 mmHg 8%
    19:00 +32°C° 0 mm 2 mps 664 mmHg 9%
    20:00 +31°C° 0 mm 3 mps 665 mmHg 10%
    21:00 +32°C° 0 mm 4 mps 665 mmHg 11%
    22:00 +30°C° 0 mm 4 mps 666 mmHg 12%
    23:00 +28°C° 0 mm 3 mps 666 mmHg 16%

    Day after tomorrow, 20 October, Saturday

    Time Temperature Precipitation Wind Pressure Humidity
    00:00 +26°C° 0 mm 2 mps 665 mmHg 21%
    01:00 +24°C° 0 mm 1 mps 665 mmHg 25%
    02:00 +23°C° 0 mm 2 mps 665 mmHg 28%
    03:00 +23°C° 0 mm 2 mps 665 mmHg 30%
    04:00 +21°C° 0 mm 3 mps 665 mmHg 32%
    05:00 +22°C° 0 mm 3 mps 665 mmHg 29%
    06:00 +23°C° 0 mm 4 mps 666 mmHg 26%
    07:00 +26°C° 0 mm 4 mps 667 mmHg 23%
    08:00 +28°C° 0 mm 4 mps 667 mmHg 19%
    09:00 +31°C° 0 mm 3 mps 668 mmHg 15%
    10:00 +34°C° 0 mm 3 mps 668 mmHg 10%
    11:00 +37°C° 0 mm 2 mps 668 mmHg 10%
    12:00 +39°C° 0 mm 2 mps 667 mmHg 9%
    13:00 +41°C° 0 mm 1 mps 667 mmHg 8%
    14:00 +41°C° 0 mm 1 mps 667 mmHg 8%
    15:00 +41°C° 0 mm 1 mps 666 mmHg 9%
    16:00 +41°C° 0 mm 1 mps 665 mmHg 9%
    17:00 +37°C° 0 mm 1 mps 665 mmHg 11%
    18:00 +35°C° 0 mm 1 mps 665 mmHg 13%
    19:00 +32°C° 0 mm 2 mps 665 mmHg 15%
    20:00 +31°C° 0 mm 2 mps 666 mmHg 16%
    21:00 +30°C° 0 mm 2 mps 666 mmHg 18%
    22:00 +29°C° 0 mm 2 mps 667 mmHg 19%
    23:00 +28°C° 0 mm 3 mps 667 mmHg 22%

    21 October, Sunday

    Time Temperature Precipitation Wind Pressure Humidity
    00:00 +27°C° 0 mm 3 mps 666 mmHg 24%
    01:00 +26°C° 0 mm 3 mps 666 mmHg 26%
    02:00 +25°C° 0 mm 3 mps 666 mmHg 27%
    03:00 +24°C° 0 mm 3 mps 666 mmHg 28%
    04:00 +24°C° 0 mm 2 mps 665 mmHg 29%
    05:00 +24°C° 0 mm 2 mps 666 mmHg 27%
    06:00 +25°C° 0 mm 2 mps 667 mmHg 26%
    07:00 +25°C° 0 mm 2 mps 667 mmHg 24%
    08:00 +28°C° 0 mm 2 mps 667 mmHg 21%
    09:00 +30°C° 0 mm 2 mps 668 mmHg 17%
    10:00 +34°C° 0 mm 2 mps 668 mmHg 13%
    11:00 +37°C° 0 mm 2 mps 668 mmHg 12%
    12:00 +39°C° 0 mm 1 mps 667 mmHg 11%
    13:00 +42°C° 0 mm 1 mps 667 mmHg 10%
    14:00 +41°C° 0 mm 1 mps 666 mmHg 10%
    15:00 +41°C° 0 mm 1 mps 666 mmHg 11%
    16:00 +40°C° 0 mm 1 mps 665 mmHg 11%
    17:00 +37°C° 0 mm 1 mps 665 mmHg 13%
    18:00 +35°C° 0 mm 1 mps 665 mmHg 15%
    19:00 +33°C° 0 mm 1 mps 665 mmHg 17%
    20:00 +32°C° 0 mm 2 mps 665 mmHg 18%
    21:00 +31°C° 0 mm 2 mps 666 mmHg 19%
    22:00 +31°C° 0 mm 2 mps 666 mmHg 21%
    23:00 +30°C° 0.2 mm 2 mps 666 mmHg 23%

    22 October, Monday

    Time Temperature Precipitation Wind Pressure Humidity
    00:00 +29°C° 0.2 mm 2 mps 666 mmHg 26%
    01:00 +27°C° 0.2 mm 3 mps 666 mmHg 29%
    02:00 +27°C° 0.1 mm 2 mps 666 mmHg 30%
    03:00 +26°C° 0.1 mm 2 mps 666 mmHg 31%
    04:00 +25°C° 0.1 mm 2 mps 666 mmHg 32%
    05:00 +25°C° 0.1 mm 3 mps 666 mmHg 34%
    06:00 +26°C° 0.1 mm 3 mps 667 mmHg 36%
    07:00 +26°C° 0.1 mm 3 mps 667 mmHg 37%
    08:00 +28°C° 0 mm 4 mps 668 mmHg 36%
    09:00 +30°C° 0 mm 4 mps 668 mmHg 35%
    10:00 +33°C° 0 mm 5 mps 668 mmHg 34%
    11:00 +34°C° 0 mm 4 mps 668 mmHg 30%
    12:00 +36°C° 0 mm 4 mps 667 mmHg 26%
    13:00 +37°C° 0 mm 4 mps 666 mmHg 23%
    14:00 +37°C° 0 mm 3 mps 666 mmHg 22%
    15:00 +38°C° 0 mm 3 mps 665 mmHg 21%
    16:00 +38°C° 0 mm 2 mps 665 mmHg 20%
    17:00 +36°C° 0.2 mm 2 mps 665 mmHg 22%
    18:00 +34°C° 0.2 mm 2 mps 665 mmHg 25%
    19:00 +31°C° 0.2 mm 2 mps 665 mmHg 28%
    20:00 +30°C° 0 mm 2 mps 665 mmHg 31%
    21:00 +29°C° 0 mm 3 mps 665 mmHg 34%
    22:00 +28°C° 0 mm 3 mps 665 mmHg 36%
    23:00 +28°C° 0.1 mm 3 mps 665 mmHg 38%

    23 October, Tuesday

    Time Temperature Precipitation Wind Pressure Humidity
    00:00 +27°C° 0.1 mm 3 mps 666 mmHg 40%
    01:00 +27°C° 0.1 mm 3 mps 666 mmHg 42%
    02:00 +26°C° 0.3 mm 3 mps 666 mmHg 47%
    03:00 +25°C° 0.3 mm 3 mps 666 mmHg 52%
    04:00 +24°C° 0.3 mm 3 mps 666 mmHg 57%
    05:00 +25°C° 0.1 mm 3 mps 667 mmHg 56%
    06:00 +26°C° 0.1 mm 3 mps 667 mmHg 55%
    07:00 +26°C° 0.1 mm 3 mps 668 mmHg 54%
    08:00 +29°C° 0 mm 3 mps 668 mmHg 45%
    09:00 +31°C° 0 mm 3 mps 669 mmHg 36%
    10:00 +34°C° 0 mm 3 mps 669 mmHg 27%
    11:00 +36°C° 0 mm 3 mps 668 mmHg 25%
    12:00 +37°C° 0 mm 3 mps 668 mmHg 22%
    13:00 +39°C° 0 mm 3 mps 667 mmHg 19%
    14:00 +38°C° 0 mm 2 mps 666 mmHg 19%
    15:00 +38°C° 0 mm 2 mps 666 mmHg 19%
    16:00 +38°C° 0 mm 2 mps 665 mmHg 19%
    17:00 +36°C° 0 mm 2 mps 665 mmHg 22%
    18:00 +34°C° 0 mm 2 mps 665 mmHg 25%
    19:00 +31°C° 0 mm 2 mps 665 mmHg 28%
    20:00 +31°C° 0 mm 2 mps 666 mmHg 28%
    21:00 +30°C° 0 mm 3 mps 666 mmHg 27%
    22:00 +29°C° 0 mm 3 mps 667 mmHg 27%
    23:00 +28°C° 0 mm 3 mps 666 mmHg 24%
    Show more